Erie, PA

8:54 AM EDT on April 19, 2018 (GMT -0400)
Erie International

Weather History for KERI - August, 2013

Change the Weather History Date:

Wednesday, August 21, 2013

  Actual Average Record
Temperature  
Mean Temperature 74 °F 70 °F  
Max Temperature 83 °F 78 °F 92 °F (1916)
Min Temperature 65 °F 62 °F 47 °F (2000)
Degree Days  
Heating Degree Days 0 0  
Month to date heating degree days 9 0  
Since 1 June heating degree days 80 68  
Since 1 July heating degree days 12 7  
Cooling Degree Days 9 6  
Month to date cooling degree days 83 134  
Year to date cooling degree days 533 509  
Since 1 June cooling degree days 448 470  
Growing Degree Days 23 (Base 50)    
Moisture  
Dew Point 61 °F    
Average Humidity 63    
Maximum Humidity 78    
Minimum Humidity 47    
Precipitation  
Precipitation 0.00 in 0.11 in 1.84 in (1977)
Month to date precipitation 2.23 2.38  
Year to date precipitation 32.36 24.74  
Snow  
Snow 0.00 in 0.00 in - ()
Month to date snowfall 0.0 0.0  
Since 1 June snowfall 0.0 0.0  
Since 1 July snowfall 0.0 0.0  
Snow Depth 0.00 in    
Sea Level Pressure  
Sea Level Pressure 30.12 in    
Wind  
Wind Speed 6 mph (SW)    
Max Wind Speed 12 mph    
Max Gust Speed 14 mph    
Visibility 10 miles    
Events      
T = Trace of Precipitation, MM = Missing Value Source: NWS Daily Summary

Daily Weather History Graph

Daily Weather History Graph

Search for Another Location

Airport or City:

Trip Planner

Search our weather history database for the weather conditions in past years. The results will help you decide how hot, cold, wet, or windy it might be!

Date:

Astronomy

Aug. 21, 2013 Rise Set
Actual Time 6:34 AM EDT 8:11 PM EDT
Civil Twilight 6:05 AM EDT 8:41 PM EDT
Nautical Twilight 5:29 AM EDT 9:16 PM EDT
Astronomical Twilight 4:51 AM EDT 9:55 PM EDT
Moon 8:17 PM EDT (8/21) 7:14 AM EDT (8/21)
Length of Visible Light 14h 35m
Length of Day
13h 36m
Full, 100% of the Moon is Illuminated
Aug 21
Full
Aug 28
Last Quarter
Sep 5
New
Sep 12
First Quarter
Sep 19
Full

Hourly Weather History & Observations

Time (EDT) Temp. Heat Index Dew Point Humidity Pressure Visibility Wind Dir Wind Speed Gust Speed Precip Events Conditions
12:51 AM 66.9 °F - 59.0 °F 76% 30.15 in 10.0 mi South 3.5 mph - N/A   Clear
1:51 AM 66.0 °F - 59.0 °F 78% 30.14 in 10.0 mi South 4.6 mph - N/A   Clear
2:51 AM 66.0 °F - 57.9 °F 75% 30.14 in 10.0 mi South 6.9 mph - N/A   Clear
3:51 AM 66.0 °F - 57.0 °F 73% 30.15 in 10.0 mi South 8.1 mph - N/A   Clear
4:51 AM 66.0 °F - 57.9 °F 75% 30.14 in 10.0 mi South 8.1 mph - N/A   Clear
5:51 AM 66.0 °F - 57.9 °F 75% 30.15 in 10.0 mi South 6.9 mph - N/A   Clear
6:51 AM 64.9 °F - 57.9 °F 78% 30.16 in 10.0 mi South 6.9 mph - N/A   Clear
7:51 AM 66.9 °F - 59.0 °F 76% 30.17 in 10.0 mi South 5.8 mph - N/A   Clear
8:51 AM 71.1 °F - 61.0 °F 70% 30.18 in 10.0 mi South 5.8 mph - N/A   Clear
9:51 AM 75.0 °F - 62.1 °F 64% 30.19 in 10.0 mi SSW 6.9 mph - N/A   Clear
10:51 AM 79.0 °F - 61.0 °F 54% 30.18 in 10.0 mi Variable 6.9 mph - N/A   Clear
11:51 AM 82.0 °F 82.7 °F 61.0 °F 49% 30.17 in 10.0 mi West 5.8 mph - N/A   Clear
12:51 PM 80.1 °F 81.1 °F 61.0 °F 52% 30.17 in 10.0 mi West 10.4 mph - N/A   Clear
1:51 PM 82.0 °F 82.7 °F 61.0 °F 49% 30.15 in 10.0 mi WNW 8.1 mph - N/A   Clear
2:51 PM 82.0 °F 82.7 °F 61.0 °F 49% 30.13 in 10.0 mi WNW 9.2 mph - N/A   Clear
3:51 PM 81.0 °F 81.9 °F 62.1 °F 52% 30.10 in 10.0 mi WNW 5.8 mph - N/A   Clear
4:51 PM 81.0 °F 81.9 °F 62.1 °F 52% 30.09 in 10.0 mi NW 6.9 mph - N/A   Clear
5:51 PM 81.0 °F 81.6 °F 60.1 °F 49% 30.08 in 10.0 mi Calm Calm - N/A   Clear
6:51 PM 80.1 °F 81.2 °F 62.1 °F 54% 30.07 in 9.0 mi West 3.5 mph - N/A   Clear
7:51 PM 78.1 °F - 62.1 °F 58% 30.05 in 9.0 mi Calm Calm - N/A   Clear
8:51 PM 75.0 °F - 64.9 °F 71% 30.04 in 8.0 mi Calm Calm - N/A   Clear
9:51 PM 73.9 °F - 63.0 °F 68% 30.05 in 10.0 mi South 3.5 mph - N/A   Clear
10:51 PM 73.0 °F - 62.1 °F 68% 30.05 in 10.0 mi South 6.9 mph - N/A   Clear
11:51 PM 73.0 °F - 61.0 °F 66% 30.04 in 10.0 mi South 6.9 mph - N/A   Clear